Home > Weather > Manhattan > Past weeks

Flag for U.S.A. Weather for the Past 2 Weeks in Manhattan, Kansas, U.S.A.

Now
50 °F

Sunny.


Feels Like: 49 °F
Forecast: 24 / 54 °F
Wind: 3 mph from North

Location: Manhattan Municipal Airport

Current Time: Feb 14, 2016 at 1:22:44 PM

Latest Report: Feb 14, 2016 at 12:52 PM


Visibility: 10 mi

Pressure: 29.91 "Hg

Humidity: 39%

Dew point: 26 °F

Location of ManhattanLocation

Historic Weather in Manhattan — Graph

°F

Manhattan Temperature Yesterday

Maximum temperature yesterday: 31 °F (at 2:52 PM)
Minimum temperature yesterday: 19 °F (at 5:52 AM)
Average temperature yesterday: 23 °F

High & Low Weather Summary for the Past Weeks

 TemperatureHumidityPressure
High62 °F (Feb 10, 3:52 PM)100% (Feb 2, 2:59 AM)30.64 "Hg (Feb 2, 2:59 AM)
Low16 °F (Feb 14, 5:52 AM)22% (Feb 7, 3:52 PM)29.32 "Hg (Feb 2, 2:01 PM)
Average34 °F64%30.11 "Hg
* Reported Jan 30 11:52 AM — Feb 14 11:52 AM, Manhattan, Weather by CustomWeather, © 2016

Note: Actual official high and low records may vary slightly from our data, if they occured in-between our weather recording intervals... More about our weather records

Advertising

Manhattan Weather History for the Previous 24 Hours

 ConditionsComfort  
Time TempWeatherWind HumidityBarometerVisibility
11:52 AM
Sun, Feb 14
45 °FSunny.6 mph42%29.93 "Hg10 mi
10:52 AM39 °FSunny.8 mph43%29.97 "Hg10 mi
9:52 AM31 °FSunny.9 mph47%29.99 "Hg10 mi
8:52 AM24 °FSunny.7 mph60%30.01 "Hg10 mi
7:52 AM18 °FSunny.3 mph74%30.03 "Hg10 mi
6:52 AM16 °FClear.No wind74%30.03 "Hg10 mi
5:52 AM16 °FClear.No wind74%30.05 "Hg10 mi
4:52 AM17 °FClear.No wind70%30.08 "Hg10 mi
3:52 AM20 °FClear.3 mph60%30.09 "Hg10 mi
2:52 AM22 °FClear.3 mph55%30.09 "Hg10 mi
1:52 AM23 °FPassing clouds.8 mph50%30.12 "Hg10 mi
12:52 AM22 °FClear.12 mph50%30.12 "Hg10 mi
11:52 PM
Sat, Feb 13
22 °FClear.12 mph52%30.13 "Hg10 mi
10:52 PM22 °FClear.9 mph52%30.16 "Hg10 mi
9:52 PM21 °FClear.9 mph52%30.18 "Hg10 mi
8:52 PM22 °FClear.9 mph50%30.24 "Hg10 mi
7:52 PM23 °FClear.10 mph48%30.26 "Hg10 mi
6:52 PM24 °FClear.12 mph46%30.29 "Hg10 mi
5:52 PM27 °FSunny.9 mph39%30.29 "Hg10 mi
4:52 PM28 °FSunny.15 mph35%30.28 "Hg10 mi
3:52 PM30 °FSunny.17 mph30%30.30 "Hg10 mi
2:52 PM31 °FPartly sunny.16 mph27%30.34 "Hg10 mi
1:52 PM29 °FOvercast.14 mph33%30.41 "Hg10 mi
Weather by CustomWeather, © 2016

See weather overviewHow to use our weather pages